Regional Weather Roundup
Issued by NWS

Home | Current Version | Previous Version | Graphics & Text | Print | Product List | Glossary On
Versions: 1 2 3 4 5 6 7 8 9 10 11 12 13 14 15 16 17 18 19 20 21 22 23 24 25 26 27 28 29 30 31 32 33 34 35 36 37 38 39 40 41 42 43 44 45 46 47 48 49 50
000
ASUS44 KMEG 012310
RWRTN
TENNESSEE HOURLY STATE WEATHER ROUNDUP
NATIONAL WEATHER SERVICE MEMPHIS TN
600 PM CDT WED JUL 01 2015

TNZ002-004-019-021-049-052-054-088>092-020000-
WEST TENNESSEE

CITY           SKY/WX    TMP DP  RH WIND       PRES   REMARKS
MEMPHIS INTL   PTSUNNY   86  75  69 S9        29.93S HX  95
NWS MEMPHIS      N/A     85 N/A N/A MISG        N/A
JACKSON        CLOUDY    84  71  65 S12       29.93S
DYERSBURG        N/A    N/A N/A N/A MISG        N/A
PARIS          MOSUNNY   79  70  73 SW7       29.95R
LEXINGTON      SUNNY     77  66  69 SE5       29.94S
$$

TNZ008-025-027-028-033-062-065-066-020000-
NORTH MIDDLE TENNESSEE

CITY           SKY/WX    TMP DP  RH WIND       PRES   REMARKS
NASHVILLE      CLOUDY    72  70  93 S6        29.96R
CLARKSVILLE    CLOUDY    76  69  79 SW14      29.94R
SMYRNA         CLOUDY    71  68  90 SW7       29.98R
COOKEVILLE     MOSUNNY   72  68  88 S8        29.97S
CROSSVILLE     CLOUDY    68  62  81 VRB3      30.02R
$$

TNZ061-075-076-078-094-096-097-020000-
SOUTH MIDDLE TENNESSEE

CITY           SKY/WX    TMP DP  RH WIND       PRES   REMARKS
FAYETTEVILLE   CLOUDY    66  66 100 S9        29.99F
TULLAHOMA      SUNNY     66  64  94 S7        30.01F
WINCHESTER     SUNNY     70  66  88 SE6       30.01F
MCMINNVILLE    SUNNY     70  70 100 S5        30.00S
COLUMBIA       SUNNY     72  72 100 VRB6      29.96F
SHELBYVILLE    SUNNY     70  68  94 S8        30.00S
$$

TNZ017-018-042-046-047-020000-
NORTHEAST TENNESSEE

CITY           SKY/WX    TMP DP  RH WIND       PRES   REMARKS
TRI CITIES     CLOUDY    69  67  93 SW10      30.01S
ELIZABETHTON   MOCLDY    66  64  94 W6        30.03S
$$

TNZ012-013-036-069-073-074-020000-
CENTRAL EAST TENNESSEE

CITY           SKY/WX    TMP DP  RH WIND       PRES   REMARKS
KNOXVILLE      LGT RAIN  71  67  87 SW14      30.00S
OAK RIDGE      LGT RAIN  75  69  81 S6        29.99F
GATLINBURG     PTCLDY    72  66  83 SW5       29.99F
MORRISTOWN     CLEAR     72  68  88 SW6       30.01F
$$

TNZ083-085-099-020000-
SOUTHEAST TENNESSEE

CITY           SKY/WX    TMP DP  RH WIND       PRES   REMARKS
CHATTANOOGA    TSTM      70  67  90 SW9       30.03F
$$

SKY/WX REPORTED AS FAIR MEANS FEW OR NO CLOUDS BELOW
12 THOUSAND FEET.



USA.gov is the U.S. government's official web portal to all federal, state and local government web resources and services.